Terminal Aerodrome Forecast
Issued by NWS Twin Cities, MN

Home | Current Version | Previous Version | Text Only | Print | Product List | Glossary On
Versions: 1 2 3 4 5 6 7 8 9 10 11 12 13 14 15 16 17 18 19 20 21 22 23 24 25 26 27 28 29 30 31
000
FTUS43 KMPX 221430 AAA
TAFMSP
TAF AMD
KMSP 221430Z 2215/2318 11007KT P6SM SCT027 BKN035 OVC090
     FM221600 10007KT P6SM OVC027
     FM222200 10007KT 2SM -SN BR SCT012 OVC020
     FM230000 11006KT 3/4SM -SN BR VV008
     FM230600 12005KT 2SM -SN BR OVC008
     FM230900 19004KT 4SM -SHSN OVC010
     FM231200 29009KT 6SM -SHSN SCT015 OVC020=

USA.gov is the U.S. government's official web portal to all federal, state and local government web resources and services.